QPF
0.00 0.00 0.00 0.00 0.00 0.00 0.00 0.00 0.00 0.00 0.00 0.00 0.00 0.00 0.00 0.00 0.00 0.00 0.00 0.00 0.00 0.00 0.00 0.00 0.00 0.00 0.00 0.00 0.00 0.00 0.00 0.00 0.00 0.00 0.00 0.00 0.00 0.00 0.00 0.00 0.00 0.00 0.00
0.00 0.00 0.00 0.00 0.00 0.00 0.00 0.00 0.00 0.00 0.00 0.00 0.00 0.00 0.00 0.00 0.00 0.00 0.00 0.00 0.00 0.00 0.00 0.00 0.00 0.00 0.00 0.00 0.00 0.00 0.00 0.00 0.00 0.00 0.00 0.00 0.00 0.00 0.00 0.00 0.00 0.00 0.00
0.00 0.00 0.00 0.00 0.00 0.00 0.00 0.00 0.00 0.00 0.00 0.00 0.00 0.00 0.00 0.00 0.00 0.00 0.00 0.00 0.00 0.00 0.00 0.00 0.00 0.00 0.00 0.00 0.00 0.00 0.00 0.00 0.00 0.00 0.00 0.00 0.00 0.00 0.00 0.00 0.00 0.00 0.00
0.00 0.00 0.00 0.00 0.00 0.00 0.00 0.00 0.00 0.00 0.00 0.00 0.00 0.00 0.00 0.00 0.00 0.00 0.00 0.00 0.00 0.00 0.00 0.00 0.00 0.00 0.00 0.00 0.00 0.00 0.00 0.00 0.00 0.00 0.00 0.00 0.00 0.00 0.00 0.00 0.00 0.00 0.00
0.00 0.00 0.00 0.00 0.00 0.00 0.00 0.00 0.00 0.00 0.00 0.00 0.00 0.00 0.00 0.00 0.00 0.00 0.00 0.00 0.00 0.00 0.00 0.00 0.00 0.00 0.00 0.00 0.00 0.00 0.00 0.00 0.00 0.00 0.00 0.00 0.00 0.00 0.00 0.00 0.00 0.00 0.00
0.00 0.00 0.00 0.00 0.00 0.00 0.00 0.00 0.00 0.00 0.00 0.00 0.00 0.00 0.00 0.00 0.00 0.00 0.00 0.00 0.00 0.00 0.00 0.00 0.00 0.00 0.00 0.00 0.00 0.00 0.00 0.00 0.00 0.00 0.00 0.00 0.00 0.00 0.00 0.00 0.00 0.00 0.00
0.00 0.00 0.00 0.00 0.00 0.00 0.00 0.00 0.00 0.00 0.00 0.00 0.00 0.00 0.00 0.00 0.00 0.00 0.00 0.00 0.00 0.00 0.00 0.00 0.00 0.00 0.00 0.00 0.00 0.00 0.00 0.00 0.00 0.00 0.00 0.00 0.00 0.00 0.00 0.00 0.00 0.00 0.00
0.00 0.00 0.00 0.00 0.00 0.00 0.00 0.00 0.00 0.00 0.00 0.00 0.00 0.00 0.00 0.00 0.00 0.00 0.00 0.00 0.00 0.00 0.00 0.00 0.00 0.00 0.00 0.00 0.00 0.00 0.00 0.00 0.00 0.00 0.00 0.00 0.00 0.00 0.00 0.00 0.00 0.00 0.00
0.00 0.00 0.00 0.00 0.00 0.00 0.00 0.00 0.00 0.00 0.00 0.00 0.00 0.00 0.00 0.00 0.00 0.00 0.00 0.00 0.00 0.00 0.00 0.00 0.00 0.00 0.00 0.00 0.00 0.00 0.00 0.00 0.00 0.00 0.00 0.00 0.00 0.00 0.00 0.00 0.00 0.00 0.00
0.00 0.00 0.00 0.00 0.00 0.00 0.00 0.00 0.00 0.00 0.00 0.00 0.00 0.00 0.00 0.00 0.00 0.00 0.00 0.00 0.00 0.00 0.00 0.00 0.00 0.00 0.00 0.00 0.00 0.00 0.00 0.00 0.00 0.00 0.00 0.00 0.00 0.00 0.00 0.00 0.00 0.00 0.00
0.00 0.00 0.00 0.00 0.00 0.00 0.00 0.00 0.00 0.00 0.00 0.00 0.00 0.00 0.00 0.00 0.00 0.00 0.00 0.00 0.00 0.00 0.00 0.00 0.00 0.00 0.00 0.00 0.00 0.00 0.00 0.00 0.00 0.00 0.00 0.00 0.00 0.00 0.00 0.00 0.00 0.00 0.00
0.00 0.00 0.00 0.00 0.00 0.00 0.00 0.00 0.00 0.00 0.00 0.00 0.00 0.00 0.00 0.00 0.00 0.00 0.00 0.00 0.00 0.00 0.00 0.00 0.00 0.00 0.00 0.00 0.00 0.00 0.00 0.00 0.00 0.00 0.00 0.00 0.00 0.00 0.00 0.00 0.00 0.00 0.00
0.00 0.00 0.00 0.00 0.00 0.00 0.00 0.00 0.00 0.00 0.00 0.00 0.00 0.00 0.00 0.00 0.00 0.00 0.00 0.00 0.00 0.00 0.00 0.00 0.00 0.00 0.00 0.00 0.00 0.00 0.00 0.00 0.00 0.00 0.00 0.00 0.00 0.00 0.00 0.00 0.00 0.00 0.00
0.00 0.00 0.00 0.00 0.00 0.00 0.00 0.00 0.00 0.00 0.00 0.00 0.00 0.00 0.00 0.00 0.00 0.00 0.00 0.00 0.00 0.00 0.00 0.00 0.00 0.00 0.00 0.00 0.00 0.00 0.00 0.00 0.00 0.00 0.00 0.00 0.00 0.00 0.00 0.00 0.00 0.00 0.00
0.00 0.00 0.00 0.00 0.00 0.00 0.00 0.00 0.00 0.00 0.00 0.00 0.00 0.00 0.00 0.00 0.00 0.00 0.00 0.00 0.00 0.00 0.00 0.00 0.00 0.00 0.00 0.00 0.00 0.00 0.00 0.00 0.00 0.00 0.00 0.00 0.00 0.00 0.00 0.00 0.00 0.00 0.00
0.00 0.00 0.00 0.00 0.00 0.00 0.00 0.00 0.00 0.00 0.00 0.00 0.00 0.00 0.00 0.00 0.00 0.00 0.00 0.00 0.00 0.00 0.00 0.00 0.00 0.00 0.00 0.00 0.00 0.00 0.00 0.00 0.00 0.00 0.00 0.00 0.00 0.00 0.00 0.00 0.00 0.00 0.00
0.00 0.00 0.00 0.00 0.00 0.00 0.00 0.00 0.00 0.00 0.00 0.00 0.00 0.00 0.00 0.00 0.00 0.00 0.00 0.00 0.00 0.00 0.00 0.00 0.00 0.00 0.00 0.00 0.00 0.00 0.00 0.00 0.00 0.00 0.00 0.00 0.00 0.00 0.00 0.00 0.00 0.00 0.00
0.00 0.00 0.00 0.00 0.00 0.00 0.00 0.00 0.00 0.00 0.00 0.00 0.00 0.00 0.00 0.00 0.00 0.00 0.00 0.00 0.00 0.00 0.00 0.00 0.00 0.00 0.00 0.00 0.00 0.00 0.00 0.00 0.00 0.00 0.00 0.00 0.00 0.00 0.00 0.00 0.00 0.00 0.00
0.00 0.00 0.00 0.00 0.00 0.00 0.00 0.00 0.00 0.00 0.00 0.00 0.00 0.00 0.00 0.00 0.00 0.00 0.00 0.00 0.00 0.00 0.00 0.00 0.00 0.00 0.00 0.00 0.00 0.00 0.00 0.00 0.00 0.00 0.00 0.00 0.00 0.00 0.00 0.00 0.00 0.00 0.00
0.00 0.00 0.00 0.00 0.00 0.00 0.00 0.00 0.00 0.00 0.00 0.00 0.00 0.00 0.00 0.00 0.00 0.00 0.00 0.00 0.00 0.00 0.00 0.00 0.00 0.00 0.00 0.00 0.00 0.00 0.00 0.00 0.00 0.00 0.00 0.00 0.00 0.00 0.00 0.00 0.00 0.00 0.00
0.00 0.00 0.00 0.00 0.00 0.00 0.00 0.00 0.00 0.00 0.00 0.00 0.00 0.00 0.00 0.00 0.00 0.00 0.00 0.00 0.00 0.00 0.00 0.00 0.00 0.00 0.00 0.00 0.00 0.00 0.00 0.00 0.00 0.00 0.00 0.00 0.00 0.00 0.00 0.00 0.00 0.00 0.00
0.00 0.00 0.00 0.00 0.00 0.00 0.00 0.00 0.00 0.00 0.00 0.00 0.00 0.00 0.00 0.00 0.00 0.00 0.00 0.00 0.00 0.00 0.00 0.00 0.00 0.00 0.00 0.00 0.00 0.00 0.00 0.00 0.00 0.00 0.00 0.00 0.00 0.00 0.00 0.00 0.00 0.00 0.00
0.00 0.00 0.00 0.00 0.00 0.00 0.00 0.00 0.00 0.00 0.00 0.00 0.00 0.00 0.00 0.00 0.00 0.00 0.00 0.00 0.00 0.00 0.00 0.00 0.00 0.00 0.00 0.00 0.00 0.00 0.00 0.00 0.00 0.00 0.00 0.00 0.00 0.00 0.00 0.00 0.00 0.00 0.00
0.00 0.00 0.00 0.00 0.00 0.00 0.00 0.00 0.00 0.00 0.00 0.00 0.00 0.00 0.00 0.00 0.00 0.00 0.00 0.00 0.00 0.00 0.00 0.00 0.00 0.00 0.00 0.00 0.00 0.00 0.00 0.00 0.00 0.00 0.00 0.00 0.00 0.00 0.00 0.00 0.00 0.00 0.00
0.00 0.00 0.00 0.00 0.00 0.00 0.00 0.00 0.00 0.00 0.00 0.00 0.00 0.00 0.00 0.00 0.00 0.00 0.00 0.00 0.00 0.00 0.00 0.00 0.00 0.00 0.00 0.00 0.00 0.00 0.00 0.00 0.00 0.00 0.00 0.00 0.00 0.00 0.00 0.00 0.00 0.00 0.00
0.00 0.00 0.00 0.00 0.00 0.00 0.00 0.00 0.00 0.00 0.00 0.00 0.00 0.00 0.00 0.00 0.00 0.00 0.00 0.00 0.00 0.00 0.00 0.00 0.00 0.00 0.00 0.00 0.00 0.00 0.00 0.00 0.00 0.00 0.00 0.00 0.00 0.00 0.00 0.00 0.00 0.00 0.00
MSLP
1030.22 1030.05 1029.46 1029.16 1028.45 1028.06 1027.66 1027.38 1026.97 1026.55 1026.00 1025.38 1024.26 1023.51 1023.10 1022.45 1021.88 1021.45 1021.01 1020.74 1020.35 1020.10 1020.15 1020.28 1020.16 1020.29 1020.47 1020.45 1020.50 1020.85 1020.98 1021.02 1021.56 1022.13 1022.37 1022.61 1022.85 1023.09 1023.24 1023.41 1023.76 1023.94 1023.89
1031.20 1030.82 1030.52 1029.96 1029.41 1029.06 1028.49 1028.06 1027.43 1026.67 1026.09 1025.54 1024.99 1024.40 1024.04 1023.15 1022.50 1021.99 1021.61 1021.21 1020.95 1020.74 1020.47 1020.29 1020.22 1020.35 1020.57 1020.56 1020.75 1020.86 1020.83 1021.00 1021.31 1021.94 1022.56 1022.80 1022.95 1023.16 1023.26 1023.38 1023.67 1023.83 1023.96
1031.82 1031.53 1031.22 1030.99 1030.55 1030.17 1029.57 1028.90 1028.02 1027.43 1026.70 1025.94 1025.66 1025.24 1024.63 1024.09 1023.39 1022.83 1022.31 1021.80 1021.56 1021.29 1021.07 1020.71 1020.51 1020.51 1020.61 1020.57 1020.82 1020.80 1020.99 1021.05 1021.40 1021.87 1022.44 1022.70 1022.89 1023.22 1023.52 1023.68 1023.63 1023.73 1023.86
1032.97 1032.70 1032.58 1032.20 1031.68 1031.18 1030.49 1029.95 1029.15 1028.32 1027.36 1026.85 1026.22 1025.77 1025.11 1024.59 1024.04 1023.33 1022.76 1022.42 1022.01 1021.60 1021.69 1021.42 1021.15 1020.84 1020.56 1020.44 1020.65 1020.87 1021.00 1021.11 1021.51 1021.82 1022.29 1022.64 1022.71 1023.10 1023.44 1023.48 1023.68 1023.67 1023.92
1034.25 1033.99 1033.75 1033.32 1032.67 1032.11 1031.31 1030.58 1029.73 1029.05 1028.10 1027.70 1026.88 1026.10 1025.65 1024.78 1024.24 1023.74 1023.30 1022.70 1022.41 1022.00 1021.92 1021.58 1021.39 1021.21 1020.92 1020.59 1020.54 1020.66 1020.95 1021.33 1021.62 1021.80 1022.31 1022.63 1022.71 1023.05 1023.45 1023.22 1023.49 1023.51 1023.92
1035.18 1034.96 1034.47 1033.86 1033.30 1032.79 1032.07 1031.22 1030.43 1029.60 1028.67 1028.17 1027.28 1026.50 1025.78 1025.26 1024.51 1023.99 1023.54 1023.22 1022.88 1022.51 1022.05 1021.59 1021.43 1021.19 1020.99 1020.83 1020.80 1020.72 1020.86 1021.17 1021.48 1021.94 1022.24 1022.43 1022.42 1022.67 1023.05 1023.20 1023.20 1023.48 1023.66
1035.84 1035.55 1035.03 1034.50 1033.97 1033.39 1032.74 1031.95 1030.98 1030.13 1029.47 1028.72 1027.77 1026.95 1026.13 1025.48 1024.58 1024.20 1023.82 1023.58 1023.28 1023.12 1022.68 1021.99 1021.68 1021.42 1021.17 1021.18 1020.87 1020.79 1021.02 1021.09 1021.35 1021.64 1021.90 1022.17 1022.19 1022.32 1022.71 1023.05 1022.95 1023.25 1023.54
1036.14 1035.84 1035.43 1034.97 1034.47 1033.81 1033.11 1032.43 1031.62 1030.72 1029.97 1029.05 1028.26 1027.42 1026.62 1025.74 1024.88 1024.32 1024.05 1023.84 1023.56 1023.46 1023.10 1022.56 1022.17 1021.78 1021.57 1021.47 1021.20 1021.04 1021.23 1021.35 1021.46 1021.71 1021.81 1021.91 1021.92 1022.12 1022.44 1022.48 1022.67 1023.16 1023.50
1036.29 1035.84 1035.43 1035.09 1034.70 1034.15 1033.54 1032.75 1031.92 1031.00 1030.03 1029.21 1028.66 1027.69 1026.87 1026.05 1025.19 1024.56 1024.17 1023.86 1023.75 1023.63 1023.37 1023.01 1022.48 1022.00 1021.66 1021.53 1021.46 1021.55 1021.54 1021.62 1021.64 1021.68 1021.74 1021.78 1021.54 1021.63 1022.17 1022.49 1022.90 1023.13 1023.61
1036.36 1035.88 1035.48 1035.14 1034.75 1034.19 1033.57 1032.86 1032.07 1031.37 1030.37 1029.53 1028.50 1027.88 1027.10 1026.39 1025.62 1024.81 1024.27 1023.97 1023.78 1023.64 1023.35 1023.13 1022.67 1022.28 1021.93 1021.76 1021.62 1021.73 1021.82 1021.68 1021.86 1022.12 1022.25 1022.16 1022.05 1021.94 1022.11 1022.43 1022.89 1023.09 1023.38
1036.51 1036.01 1035.58 1035.20 1034.69 1034.03 1033.33 1032.71 1031.95 1031.20 1030.38 1029.64 1028.73 1027.94 1027.30 1026.63 1025.98 1025.03 1024.37 1023.88 1023.80 1023.69 1023.58 1023.28 1022.97 1022.43 1021.86 1021.58 1021.46 1021.71 1021.65 1021.74 1021.98 1022.37 1022.78 1022.83 1022.85 1022.98 1022.97 1022.97 1022.97 1023.02 1023.25
1036.55 1036.04 1035.52 1035.05 1034.57 1033.94 1033.36 1032.56 1031.85 1031.14 1030.36 1029.62 1028.86 1027.86 1027.39 1026.74 1026.04 1025.48 1024.72 1024.09 1023.71 1023.64 1023.58 1023.28 1023.18 1022.52 1022.00 1021.67 1021.79 1021.62 1021.55 1021.83 1022.23 1022.64 1023.03 1023.32 1023.39 1023.59 1023.65 1023.50 1023.44 1023.48 1023.44
1036.74 1036.16 1035.59 1035.03 1034.48 1034.01 1033.25 1032.60 1032.05 1031.39 1030.71 1029.94 1029.24 1028.46 1027.79 1027.16 1026.67 1025.81 1025.12 1024.45 1024.03 1023.72 1023.48 1023.17 1022.80 1022.64 1022.28 1022.05 1022.03 1021.71 1021.60 1022.11 1022.48 1022.89 1023.21 1023.48 1023.68 1023.80 1023.90 1023.95 1023.99 1024.10 1024.27
1036.89 1036.21 1035.55 1034.97 1034.47 1034.00 1033.56 1032.99 1032.37 1031.71 1030.99 1030.28 1029.60 1028.91 1028.25 1027.55 1026.93 1026.26 1025.48 1024.77 1024.22 1023.79 1023.64 1023.45 1023.16 1023.02 1022.70 1022.50 1022.21 1021.77 1021.78 1022.06 1022.54 1022.84 1023.27 1023.70 1024.02 1023.97 1024.02 1024.14 1024.19 1024.42 1024.43
1037.01 1036.37 1035.71 1035.14 1034.66 1034.11 1033.69 1033.20 1032.53 1031.98 1031.22 1030.08 1029.52 1028.98 1028.31 1027.62 1027.10 1026.40 1025.78 1025.03 1024.35 1023.73 1023.44 1023.62 1023.55 1023.30 1023.18 1023.15 1022.78 1022.46 1022.40 1022.43 1022.58 1022.99 1023.21 1023.67 1024.01 1024.11 1024.30 1024.29 1024.56 1024.53 1024.50
1037.08 1036.28 1035.83 1035.35 1034.85 1034.35 1033.78 1032.97 1032.53 1031.83 1030.96 1030.22 1029.47 1028.77 1028.20 1027.53 1026.76 1026.18 1025.56 1024.97 1024.18 1023.62 1023.49 1023.71 1023.82 1023.91 1023.90 1023.89 1023.50 1022.96 1022.50 1022.50 1022.57 1022.97 1023.27 1023.57 1024.08 1024.29 1024.53 1024.45 1024.46 1024.60 1024.80
1037.35 1036.56 1035.94 1035.51 1035.10 1034.60 1033.97 1033.37 1032.41 1031.42 1031.21 1030.62 1029.96 1029.25 1028.61 1027.92 1027.11 1026.41 1025.69 1024.94 1024.17 1023.76 1023.53 1023.37 1023.70 1023.97 1024.16 1024.06 1023.82 1023.58 1023.20 1022.68 1022.62 1022.85 1023.30 1023.58 1023.94 1024.27 1024.51 1024.62 1024.71 1024.78 1025.07
1036.93 1036.46 1036.04 1035.55 1035.14 1034.62 1034.10 1033.59 1033.01 1032.19 1031.24 1030.54 1030.24 1029.69 1028.79 1028.06 1027.41 1026.59 1025.78 1024.92 1024.67 1024.22 1023.94 1023.35 1023.37 1023.68 1024.16 1024.23 1023.97 1023.67 1023.27 1023.10 1022.88 1023.01 1023.21 1023.43 1023.69 1024.06 1024.54 1024.75 1024.88 1025.00 1025.19
1036.82 1036.24 1035.72 1035.33 1034.96 1034.58 1034.11 1033.56 1033.03 1032.44 1031.74 1030.85 1030.02 1029.43 1029.37 1028.55 1027.73 1026.97 1026.38 1026.01 1025.70 1025.08 1024.39 1023.82 1023.19 1023.14 1023.57 1023.73 1023.71 1023.64 1023.34 1023.10 1022.96 1022.91 1023.04 1023.24 1023.45 1023.92 1024.41 1024.68 1024.84 1025.05 1025.26
1036.48 1036.05 1035.50 1035.14 1034.74 1034.36 1033.99 1033.50 1032.93 1032.35 1031.63 1030.93 1030.25 1029.69 1029.25 1028.92 1027.98 1027.40 1026.95 1026.58 1026.24 1025.66 1024.90 1024.09 1023.76 1023.37 1022.89 1023.19 1023.50 1023.46 1023.39 1023.22 1022.88 1022.86 1022.89 1023.11 1023.34 1023.64 1024.01 1024.37 1024.68 1025.02 1025.40
1036.06 1035.64 1035.22 1034.92 1034.68 1034.24 1033.87 1033.46 1032.83 1032.19 1031.51 1030.71 1029.87 1029.22 1028.53 1027.81 1027.65 1027.28 1027.08 1026.87 1026.56 1026.01 1025.35 1024.50 1023.91 1023.55 1023.25 1023.34 1023.34 1023.34 1023.36 1023.19 1023.00 1022.76 1022.72 1022.85 1023.11 1023.40 1023.48 1023.80 1024.30 1024.78 1025.51
1035.67 1035.28 1034.96 1034.78 1034.30 1033.91 1033.42 1032.94 1032.47 1031.92 1031.20 1030.41 1029.39 1028.65 1027.99 1027.94 1027.66 1027.43 1027.11 1026.77 1026.57 1026.14 1025.35 1024.83 1024.35 1023.95 1023.51 1023.26 1023.35 1023.33 1023.19 1023.04 1022.83 1022.76 1022.51 1022.52 1022.82 1023.02 1023.19 1023.57 1024.03 1024.66 1025.40
1035.16 1034.90 1034.63 1034.31 1033.96 1033.52 1033.10 1032.49 1032.06 1031.49 1030.78 1029.97 1029.17 1028.35 1027.68 1027.30 1027.08 1026.84 1026.63 1026.34 1026.18 1025.71 1025.07 1024.66 1024.37 1023.90 1023.57 1023.31 1023.18 1023.11 1023.07 1022.69 1022.63 1022.72 1022.21 1022.21 1022.43 1022.73 1023.02 1023.47 1023.87 1024.52 1025.17
1034.59 1034.43 1034.22 1033.79 1033.43 1033.02 1032.70 1032.14 1031.41 1030.78 1030.21 1029.49 1028.71 1028.03 1027.28 1026.74 1026.42 1026.02 1025.75 1025.52 1025.26 1025.06 1024.61 1024.15 1023.93 1023.93 1023.44 1023.13 1022.74 1022.55 1022.46 1022.24 1022.01 1021.82 1021.55 1021.92 1022.18 1022.50 1022.85 1023.20 1023.57 1024.03 1024.67
1033.81 1033.72 1033.56 1033.21 1032.93 1032.41 1031.93 1031.39 1030.83 1030.19 1029.58 1028.88 1028.05 1027.44 1026.72 1026.13 1025.72 1025.27 1024.87 1024.65 1024.39 1024.25 1023.92 1023.45 1023.11 1023.13 1022.99 1022.75 1022.42 1022.10 1022.04 1021.94 1021.99 1021.86 1021.66 1021.55 1021.84 1022.18 1022.53 1022.89 1023.33 1023.81 1024.49
1032.85 1032.72 1032.49 1032.28 1032.12 1031.68 1031.35 1030.74 1030.10 1029.42 1028.78 1028.07 1027.37 1026.73 1026.15 1025.40 1024.84 1024.45 1024.09 1023.83 1023.56 1023.25 1023.12 1022.73 1022.32 1022.27 1022.28 1022.13 1021.90 1021.62 1021.52 1021.55 1021.58 1021.64 1021.70 1021.47 1021.56 1021.92 1022.26 1022.63 1023.09 1023.56 1024.11
Thickness
5283 5284 5290 5293 5301 5306 5311 5316 5323 5329 5336 5346 5360 5371 5378 5387 5396 5404 5413 5418 5425 5431 5433 5436 5442 5443 5445 5450 5455 5456 5459 5464 5464 5461 5462 5464 5466 5467 5470 5470 5470 5471 5473
5270 5270 5273 5278 5283 5288 5296 5302 5310 5319 5327 5334 5343 5353 5360 5371 5381 5390 5398 5405 5411 5416 5421 5426 5431 5434 5436 5439 5442 5447 5452 5455 5456 5456 5453 5455 5457 5459 5462 5464 5465 5465 5465
5256 5257 5258 5260 5265 5269 5276 5285 5295 5304 5313 5322 5328 5335 5344 5353 5362 5371 5381 5391 5397 5402 5407 5415 5419 5423 5427 5432 5433 5438 5441 5446 5447 5447 5448 5448 5450 5451 5452 5454 5458 5459 5459
5242 5240 5239 5241 5246 5251 5259 5267 5277 5286 5297 5305 5313 5321 5331 5338 5346 5356 5366 5376 5384 5392 5394 5400 5406 5412 5419 5425 5426 5429 5431 5434 5436 5439 5439 5441 5444 5444 5445 5448 5450 5452 5452
5229 5224 5221 5222 5227 5234 5243 5252 5262 5270 5282 5289 5299 5307 5315 5327 5334 5341 5350 5362 5371 5379 5382 5390 5395 5399 5405 5412 5418 5422 5423 5424 5426 5430 5432 5433 5435 5436 5436 5442 5443 5445 5444
5218 5212 5210 5209 5212 5216 5224 5235 5244 5254 5265 5274 5284 5294 5304 5312 5321 5329 5338 5347 5357 5366 5373 5380 5386 5392 5397 5402 5406 5411 5415 5416 5419 5420 5423 5427 5429 5430 5431 5433 5436 5437 5440
5206 5202 5200 5198 5198 5200 5206 5215 5227 5237 5245 5256 5269 5278 5289 5298 5309 5317 5325 5333 5343 5351 5359 5369 5376 5382 5388 5391 5397 5402 5404 5410 5412 5413 5417 5419 5422 5425 5425 5425 5429 5430 5431
5196 5191 5189 5189 5187 5188 5191 5196 5206 5217 5227 5239 5250 5262 5272 5283 5294 5304 5311 5320 5329 5337 5346 5355 5361 5370 5375 5380 5387 5392 5394 5398 5403 5406 5410 5412 5417 5419 5419 5422 5423 5423 5422
5189 5184 5181 5179 5177 5176 5176 5179 5187 5199 5210 5222 5232 5245 5257 5268 5279 5289 5298 5307 5316 5325 5333 5340 5350 5358 5365 5373 5379 5381 5384 5389 5392 5396 5402 5407 5412 5415 5414 5415 5414 5417 5416
5183 5178 5174 5171 5168 5166 5165 5164 5168 5177 5191 5203 5218 5228 5240 5251 5263 5275 5285 5293 5302 5312 5321 5328 5337 5346 5352 5360 5367 5371 5377 5382 5384 5388 5393 5399 5404 5408 5409 5410 5409 5410 5412
5176 5172 5167 5162 5160 5159 5157 5155 5154 5160 5174 5186 5201 5213 5224 5237 5247 5259 5271 5281 5288 5297 5306 5316 5325 5334 5344 5353 5360 5363 5370 5373 5377 5379 5382 5386 5390 5393 5398 5402 5404 5406 5407
5170 5166 5161 5156 5153 5151 5149 5147 5146 5146 5157 5171 5186 5200 5209 5221 5232 5242 5255 5266 5276 5283 5292 5302 5311 5322 5332 5341 5347 5356 5362 5364 5367 5370 5372 5375 5379 5382 5386 5391 5396 5399 5402
5161 5158 5155 5151 5147 5143 5143 5141 5138 5137 5141 5154 5169 5182 5193 5205 5215 5227 5239 5250 5261 5271 5280 5290 5301 5310 5320 5328 5335 5345 5351 5353 5357 5361 5364 5366 5369 5373 5378 5381 5385 5388 5390
5154 5151 5149 5145 5140 5136 5133 5134 5132 5131 5132 5140 5152 5165 5177 5189 5199 5211 5224 5236 5248 5258 5268 5276 5285 5294 5305 5313 5323 5334 5340 5344 5347 5352 5355 5356 5359 5364 5370 5373 5377 5379 5384
5148 5145 5141 5138 5133 5128 5124 5126 5128 5128 5130 5136 5143 5155 5165 5176 5185 5198 5209 5220 5232 5245 5255 5261 5268 5278 5289 5296 5306 5317 5325 5331 5338 5342 5348 5350 5352 5357 5359 5365 5367 5372 5377
5144 5141 5136 5131 5126 5121 5119 5122 5125 5127 5130 5134 5139 5146 5157 5166 5176 5187 5198 5209 5221 5232 5242 5250 5254 5262 5270 5280 5289 5302 5314 5322 5330 5333 5338 5342 5344 5348 5351 5356 5362 5366 5369
5139 5135 5131 5126 5122 5118 5117 5119 5121 5126 5127 5129 5133 5138 5144 5152 5163 5173 5184 5196 5209 5218 5230 5240 5245 5250 5253 5266 5277 5286 5297 5310 5318 5325 5328 5333 5337 5340 5345 5351 5355 5359 5361
5136 5132 5127 5123 5119 5116 5115 5115 5116 5119 5121 5126 5129 5131 5137 5143 5149 5158 5169 5181 5190 5200 5212 5224 5234 5240 5240 5250 5262 5274 5286 5295 5305 5313 5319 5324 5331 5335 5338 5341 5345 5353 5357
5133 5130 5125 5121 5117 5114 5111 5110 5110 5111 5114 5118 5122 5126 5129 5132 5138 5143 5149 5156 5166 5177 5192 5208 5217 5225 5229 5239 5249 5261 5273 5284 5292 5303 5310 5316 5323 5327 5330 5335 5341 5346 5350
5132 5127 5124 5119 5115 5111 5108 5106 5106 5104 5105 5110 5114 5116 5118 5122 5124 5127 5130 5134 5142 5153 5168 5186 5196 5206 5219 5229 5238 5248 5258 5269 5283 5292 5300 5306 5313 5319 5326 5330 5336 5341 5344
5132 5126 5121 5115 5110 5107 5104 5101 5100 5100 5100 5104 5108 5111 5115 5118 5116 5117 5117 5118 5124 5133 5143 5160 5175 5188 5200 5211 5224 5235 5246 5258 5268 5282 5290 5298 5304 5311 5320 5326 5330 5334 5335
5133 5126 5118 5111 5108 5105 5102 5099 5097 5095 5096 5098 5102 5103 5107 5103 5100 5097 5097 5099 5105 5113 5124 5135 5149 5163 5179 5194 5206 5220 5231 5243 5255 5267 5281 5290 5297 5305 5312 5319 5324 5327 5329
5132 5125 5117 5110 5104 5101 5098 5095 5092 5091 5091 5092 5094 5095 5095 5092 5088 5084 5081 5083 5088 5096 5107 5118 5131 5142 5158 5174 5190 5205 5218 5231 5245 5257 5270 5281 5289 5296 5304 5309 5315 5320 5324
5129 5122 5116 5110 5104 5099 5094 5093 5090 5088 5086 5086 5087 5086 5086 5083 5078 5075 5073 5075 5079 5086 5094 5103 5113 5124 5138 5155 5173 5189 5205 5219 5233 5246 5260 5270 5279 5288 5294 5301 5308 5315 5320
5127 5120 5114 5109 5102 5098 5093 5090 5087 5085 5083 5081 5082 5080 5078 5075 5071 5069 5069 5070 5074 5078 5084 5091 5099 5109 5122 5138 5157 5174 5190 5205 5220 5234 5247 5260 5271 5280 5288 5294 5302 5308 5312
5126 5119 5114 5108 5101 5096 5090 5087 5086 5084 5082 5080 5078 5076 5073 5071 5068 5066 5067 5068 5070 5071 5074 5082 5090 5098 5111 5124 5142 5160 5178 5194 5209 5223 5236 5249 5261 5271 5279 5287 5294 5301 5307